Location: Unspecified
(43.4680°N, 87.1740°E)
Time: 06:18:00
(UTC+00:00)

Cosmos 1339 Rocket - Pass Details

Date: 17 January 2020
Orbit: 942 x 1006 km, 82.9° (Epoch: 24 February)

Event Time Altitude Azimuth Distance (km) Brightness Sun altitude
Rises 13:16:39 0° 353° (N) 3,618 7.5 -24.0°
Reaches altitude 10° 13:19:09 10° 354° (N) 2,668 6.8 -24.4°
Maximum altitude 13:25:15 79° 82° (E) 965 4.3 -25.5°
Drops below altitude 10° 13:31:20 10° 169° (S) 2,666 6.7 -26.6°
Sets 13:33:50 0° 171° (S) 3,614 7.4 -27.1°
